| time (UTC) | temp C | wind direction | speed KPH | gust KPH | rain 1hr cm | rain 24hr cm | rain mn cm | humidity % | barometer mb |
| 20260831013928 | 31 | 132 | 3.2 | 16.1 | 0.00 | 0.00 | 0.00 | 28 | 1017.0 |
| 20260831013427 | 31 | 129 | 6.4 | 14.5 | 0.00 | 0.00 | 0.00 | 28 | 1016.7 |
| 20260831012926 | 31 | 138 | 1.6 | 14.5 | 0.00 | 0.00 | 0.00 | 27 | 1016.7 |
| 20260831012424 | 32 | 125 | 0.0 | 12.9 | 0.00 | 0.00 | 0.00 | 27 | 1017.0 |
| 20260831011923 | 32 | 122 | 4.8 | 11.3 | 0.00 | 0.00 | 0.00 | 27 | 1016.7 |
| 20260831011415 | 32 | 126 | 0.0 | 20.9 | 0.00 | 0.00 | 0.00 | 27 | 1017.0 |
| 20260831011132 | 32 | 148 | 1.6 | 20.9 | 0.00 | 0.00 | 0.00 | 26 | 1016.7 |
| 20260831010358 | 32 | 142 | 0.0 | 17.7 | 0.00 | 0.00 | 0.00 | 26 | 1016.7 |
| 20260831005854 | 32 | 137 | 3.2 | 20.9 | 0.00 | 0.00 | 0.00 | 26 | 1016.7 |
| 20260831005352 | 32 | 109 | 1.6 | 24.1 | 0.00 | 0.00 | 0.00 | 26 | 1017.0 |
| 20260831004847 | 33 | 117 | 6.4 | 24.1 | 0.00 | 0.00 | 0.00 | 26 | 1016.7 |
| 20260831004344 | 33 | 117 | 8.0 | 24.1 | 0.00 | 0.00 | 0.00 | 26 | 1016.7 |
| 20260831003835 | 33 | 175 | 8.0 | 24.1 | 0.00 | 0.00 | 0.00 | 25 | 1016.7 |
| 20260831003324 | 33 | 113 | 14.5 | 24.1 | 0.00 | 0.00 | 0.00 | 25 | 1017.0 |
| 20260831002820 | 33 | 136 | 1.6 | 20.9 | 0.00 | 0.00 | 0.00 | 25 | 1016.7 |
| 20260831002306 | 33 | 139 | 1.6 | 20.9 | 0.00 | 0.00 | 0.00 | 24 | 1016.7 |
| 20260831001759 | 33 | 114 | 14.5 | 20.9 | 0.00 | 0.00 | 0.00 | 24 | 1016.7 |
| 20260831001251 | 34 | 122 | 9.7 | 17.7 | 0.00 | 0.00 | 0.00 | 24 | 1016.7 |
| 20260831000746 | 34 | 138 | 1.6 | 22.5 | 0.00 | 0.00 | 0.00 | 24 | 1016.7 |
| 20260831000236 | 34 | 153 | 11.3 | 22.5 | 0.00 | 0.00 | 0.00 | 24 | 1017.0 |
| 20260830235726 | 34 | 124 | 0.0 | 12.9 | 0.00 | 0.00 | 0.00 | 24 | 1016.7 |
| 20260830235212 | 35 | 135 | 1.6 | 17.7 | 0.00 | 0.00 | 0.00 | 24 | 1017.0 |
| 20260830234701 | 34 | 151 | 3.2 | 16.1 | 0.00 | 0.00 | 0.00 | 23 | 1017.0 |
| 20260830234200 | 35 | 140 | 0.0 | 16.1 | 0.00 | 0.00 | 0.00 | 24 | 1017.0 |
| 20260830233645 | 35 | 163 | 11.3 | 20.9 | 0.00 | 0.00 | 0.00 | 23 | 1016.7 |
| 20260830233404 | 35 | 142 | 9.7 | 24.1 | 0.00 | 0.00 | 0.00 | 24 | 1016.7 |
| 20260830232633 | 34 | 118 | 6.4 | 24.1 | 0.00 | 0.00 | 0.00 | 24 | 1016.7 |
| 20260830232130 | 34 | 169 | 6.4 | 12.9 | 0.00 | 0.00 | 0.00 | 24 | 1016.7 |
| 20260830231849 | 35 | 128 | 0.0 | 6.4 | 0.00 | 0.00 | 0.00 | 23 | 1016.7 |
| 20260830231120 | 35 | 158 | 0.0 | 6.4 | 0.00 | 0.00 | 0.00 | 24 | 1017.0 |
| 20260830230620 | 35 | 113 | 3.2 | 12.9 | 0.00 | 0.00 | 0.00 | 24 | 1016.7 |
| 20260830230114 | 35 | 158 | 0.0 | 12.9 | 0.00 | 0.00 | 0.00 | 23 | 1016.7 |
| 20260830225604 | 36 | 141 | 0.0 | 20.9 | 0.00 | 0.00 | 0.00 | 23 | 1016.7 |
| 20260830225056 | 35 | 198 | 0.0 | 20.9 | 0.00 | 0.00 | 0.00 | 22 | 1016.7 |
| 20260830224550 | 35 | 112 | 1.6 | 22.5 | 0.00 | 0.00 | 0.00 | 23 | 1016.7 |
| 20260830224037 | 35 | 124 | 3.2 | 22.5 | 0.00 | 0.00 | 0.00 | 23 | 1016.7 |
| 20260830223538 | 35 | 138 | 1.6 | 11.3 | 0.00 | 0.00 | 0.00 | 23 | 1016.7 |
| 20260830223027 | 35 | 115 | 0.0 | 11.3 | 0.00 | 0.00 | 0.00 | 23 | 1017.0 |
| 20260830222743 | 36 | 160 | 0.0 | 12.9 | 0.00 | 0.00 | 0.00 | 22 | 1016.7 |
| 20260830222504 | 36 | 110 | 0.0 | 12.9 | 0.00 | 0.00 | 0.00 | 22 | 1016.7 |
| 20260830221721 | 36 | 147 | 1.6 | 16.1 | 0.00 | 0.00 | 0.00 | 22 | 1017.0 |
| 20260830220952 | 36 | 156 | 8.0 | 16.1 | 0.00 | 0.00 | 0.00 | 22 | 1017.0 |
| 20260830220440 | 36 | 125 | 0.0 | 6.4 | 0.00 | 0.00 | 0.00 | 22 | 1017.0 |
| 20260830215940 | 36 | 163 | 0.0 | 6.4 | 0.00 | 0.00 | 0.00 | 22 | 1017.0 |
| 20260830215430 | 36 | 141 | 1.6 | 9.7 | 0.00 | 0.00 | 0.00 | 23 | 1017.0 |
| 20260830214926 | 36 | 156 | 0.0 | 9.7 | 0.00 | 0.00 | 0.00 | 22 | 1017.0 |
| 20260830214426 | 36 | 167 | 3.2 | 16.1 | 0.00 | 0.00 | 0.00 | 22 | 1016.7 |
| 20260830213925 | 35 | 126 | 0.0 | 16.1 | 0.00 | 0.00 | 0.00 | 23 | 1017.3 |
| 20260830213419 | 36 | 153 | 0.0 | 1.6 | 0.00 | 0.00 | 0.00 | 22 | 1017.0 |
| 20260830212904 | 37 | 150 | 0.0 | 12.9 | 0.00 | 0.00 | 0.00 | 22 | 1017.3 |
| 20260830212404 | 36 | 148 | 0.0 | 12.9 | 0.00 | 0.00 | 0.00 | 22 | 1017.0 |
| 20260830211854 | 36 | 126 | 1.6 | 16.1 | 0.00 | 0.00 | 0.00 | 21 | 1017.0 |
| 20260830211339 | 37 | 169 | 0.0 | 16.1 | 0.00 | 0.00 | 0.00 | 21 | 1017.0 |
| 20260830210835 | 36 | 206 | 0.0 | 16.1 | 0.00 | 0.00 | 0.00 | 21 | 1017.3 |
| 20260830210330 | 36 | 180 | 3.2 | 16.1 | 0.00 | 0.00 | 0.00 | 22 | 1017.7 |
| 20260830205817 | 35 | 148 | 0.0 | 11.3 | 0.00 | 0.00 | 0.00 | 24 | 1017.3 |
| 20260830205535 | 35 | 122 | 0.0 | 11.3 | 0.00 | 0.00 | 0.00 | 23 | 1017.7 |
| 20260830204806 | 36 | 208 | 0.0 | 4.8 | 0.00 | 0.00 | 0.00 | 22 | 1017.3 |
| 20260830204248 | 36 | 120 | 1.6 | 4.8 | 0.00 | 0.00 | 0.00 | 23 | 1017.3 |
| 20260830203741 | 36 | 195 | 0.0 | 0.0 | 0.00 | 0.00 | 0.00 | 22 | 1017.7 |
| 20260830203233 | 36 | 122 | 0.0 | 9.7 | 0.00 | 0.00 | 0.00 | 22 | 1018.0 |
| 20260830202732 | 36 | 202 | 0.0 | 14.5 | 0.00 | 0.00 | 0.00 | 22 | 1018.0 |
| 20260830202215 | 36 | 116 | 0.0 | 14.5 | 0.00 | 0.00 | 0.00 | 23 | 1018.0 |
| 20260830201933 | 36 | 130 | 3.2 | 14.5 | 0.00 | 0.00 | 0.00 | 23 | 1018.0 |
| 20260830201204 | 35 | 168 | 0.0 | 4.8 | 0.00 | 0.00 | 0.00 | 24 | 1018.0 |
| 20260830200652 | 36 | 195 | 0.0 | 0.0 | 0.00 | 0.00 | 0.00 | 23 | 1018.3 |
| 20260830200148 | 37 | 181 | 0.0 | 0.0 | 0.00 | 0.00 | 0.00 | 22 | 1018.3 |
| 20260830195637 | 36 | 313 | 0.0 | 1.6 | 0.00 | 0.00 | 0.00 | 23 | 1018.3 |
| 20260830195356 | 36 | 119 | 0.0 | 1.6 | 0.00 | 0.00 | 0.00 | 23 | 1018.7 |
| 20260830194855 | 37 | 176 | 0.0 | 20.9 | 0.00 | 0.00 | 0.00 | 23 | 1018.3 |
| 20260830194131 | 36 | 149 | 0.0 | 20.9 | 0.00 | 0.00 | 0.00 | 23 | 1018.3 |
| 20260830193623 | 37 | 186 | 0.0 | 3.2 | 0.00 | 0.00 | 0.00 | 22 | 1018.3 |
| 20260830193117 | 37 | 171 | 0.0 | 3.2 | 0.00 | 0.00 | 0.00 | 21 | 1018.7 |
| 20260830192605 | 37 | 124 | 1.6 | 11.3 | 0.00 | 0.00 | 0.00 | 22 | 1018.3 |
| 20260830192054 | 36 | 173 | 1.6 | 11.3 | 0.00 | 0.00 | 0.00 | 22 | 1018.7 |
| 20260830191812 | 36 | 183 | 0.0 | 11.3 | 0.00 | 0.00 | 0.00 | 23 | 1018.7 |
| 20260830191045 | 37 | 197 | 0.0 | 11.3 | 0.00 | 0.00 | 0.00 | 22 | 1018.7 |
| 20260830190541 | 36 | 171 | 0.0 | 9.7 | 0.00 | 0.00 | 0.00 | 22 | 1018.7 |
| 20260830190033 | 36 | 145 | 0.0 | 14.5 | 0.00 | 0.00 | 0.00 | 24 | 1018.7 |
| 20260830185530 | 36 | 181 | 0.0 | 14.5 | 0.00 | 0.00 | 0.00 | 24 | 1018.7 |
| 20260830185023 | 37 | 204 | 0.0 | 9.7 | 0.00 | 0.00 | 0.00 | 23 | 1018.7 |
| 20260830184515 | 36 | 262 | 0.0 | 12.9 | 0.00 | 0.00 | 0.00 | 24 | 1018.7 |
| 20260830184006 | 35 | 208 | 0.0 | 12.9 | 0.00 | 0.00 | 0.00 | 24 | 1018.7 |
| 20260830183457 | 35 | 173 | 0.0 | 11.3 | 0.00 | 0.00 | 0.00 | 25 | 1018.7 |
| 20260830182955 | 36 | 189 | 0.0 | 11.3 | 0.00 | 0.00 | 0.00 | 23 | 1019.4 |
| 20260830182705 | 36 | 159 | 4.8 | 9.7 | 0.00 | 0.00 | 0.00 | 24 | 1019.0 |
| 20260830181943 | 36 | 140 | 0.0 | 0.0 | 0.00 | 0.00 | 0.00 | 23 | 1019.0 |
| 20260830181444 | 36 | 188 | 0.0 | 12.9 | 0.00 | 0.00 | 0.00 | 24 | 1019.4 |
| 20260830180935 | 36 | 173 | 0.0 | 12.9 | 0.00 | 0.00 | 0.00 | 24 | 1019.4 |
| 20260830180425 | 35 | 194 | 0.0 | 11.3 | 0.00 | 0.00 | 0.00 | 25 | 1019.4 |
| 20260830175912 | 36 | 192 | 0.0 | 3.2 | 0.00 | 0.00 | 0.00 | 24 | 1019.4 |
| 20260830175413 | 35 | 133 | 0.0 | 20.9 | 0.00 | 0.00 | 0.00 | 26 | 1019.4 |
| 20260830174901 | 35 | 207 | 0.0 | 20.9 | 0.00 | 0.00 | 0.00 | 24 | 1019.7 |
| 20260830174606 | 35 | 174 | 0.0 | 3.2 | 0.00 | 0.00 | 0.00 | 25 | 1019.7 |
| 20260830173837 | 35 | 173 | 0.0 | 6.4 | 0.00 | 0.00 | 0.00 | 25 | 1019.4 |
| 20260830173333 | 35 | 155 | 3.2 | 16.1 | 0.00 | 0.00 | 0.00 | 24 | 1019.4 |
| 20260830172830 | 34 | 176 | 1.6 | 16.1 | 0.00 | 0.00 | 0.00 | 26 | 1019.4 |
| 20260830172312 | 35 | 206 | 0.0 | 6.4 | 0.00 | 0.00 | 0.00 | 25 | 1019.4 |
| 20260830171807 | 34 | 180 | 0.0 | 11.3 | 0.00 | 0.00 | 0.00 | 27 | 1019.4 |
| 20260830171256 | 33 | 158 | 0.0 | 11.3 | 0.00 | 0.00 | 0.00 | 28 | 1019.7 |
| 20260830170744 | 33 | 177 | 0.0 | 9.7 | 0.00 | 0.00 | 0.00 | 30 | 1019.7 |
| 20260830170233 | 33 | 182 | 0.0 | 9.7 | 0.00 | 0.00 | 0.00 | 30 | 1020.0 |
| 20260830165713 | 33 | 128 | 1.6 | 9.7 | 0.00 | 0.00 | 0.00 | 32 | 1020.0 |
| 20260830165158 | 33 | 137 | 0.0 | 9.7 | 0.00 | 0.00 | 0.00 | 32 | 1020.0 |
| 20260830164644 | 32 | 171 | 0.0 | 12.9 | 0.00 | 0.00 | 0.00 | 32 | 1020.0 |
| 20260830164135 | 32 | 106 | 0.0 | 12.9 | 0.00 | 0.00 | 0.00 | 33 | 1020.0 |
| 20260830163635 | 31 | 181 | 6.4 | 12.9 | 0.00 | 0.00 | 0.00 | 35 | 1020.0 |
| 20260830163127 | 32 | 148 | 0.0 | 11.3 | 0.00 | 0.00 | 0.00 | 35 | 1020.0 |
| 20260830162613 | 31 | 156 | 0.0 | 12.9 | 0.00 | 0.00 | 0.00 | 37 | 1020.0 |
| 20260830162106 | 31 | 193 | 4.8 | 16.1 | 0.00 | 0.00 | 0.00 | 36 | 1020.0 |
| 20260830161555 | 31 | 119 | 0.0 | 16.1 | 0.00 | 0.00 | 0.00 | 38 | 1020.0 |
| 20260830161041 | 31 | 187 | 0.0 | 16.1 | 0.00 | 0.00 | 0.00 | 37 | 1020.0 |
| 20260830160527 | 31 | 131 | 6.4 | 14.5 | 0.00 | 0.00 | 0.00 | 38 | 1020.0 |
| 20260830160013 | 31 | 180 | 3.2 | 11.3 | 0.00 | 0.00 | 0.00 | 37 | 1020.0 |
| 20260830155502 | 30 | 165 | 0.0 | 9.7 | 0.00 | 0.00 | 0.00 | 38 | 1020.0 |
| 20260830154947 | 30 | 159 | 0.0 | 11.3 | 0.00 | 0.00 | 0.00 | 39 | 1020.0 |
| 20260830154435 | 30 | 177 | 6.4 | 11.3 | 0.00 | 0.00 | 0.00 | 40 | 1020.0 |
| 20260830153936 | 30 | 204 | 3.2 | 11.3 | 0.00 | 0.00 | 0.00 | 40 | 1020.0 |
| 20260830153429 | 30 | 191 | 3.2 | 11.3 | 0.00 | 0.00 | 0.00 | 40 | 1020.4 |
| 20260830153141 | 29 | 152 | 0.0 | 11.3 | 0.00 | 0.00 | 0.00 | 42 | 1020.0 |
| 20260830152404 | 28 | 180 | 0.0 | 9.7 | 0.00 | 0.00 | 0.00 | 42 | 1020.0 |
| 20260830151851 | 28 | 205 | 0.0 | 12.9 | 0.00 | 0.00 | 0.00 | 44 | 1020.0 |
| 20260830151552 | 28 | 223 | 0.0 | 17.7 | 0.00 | 0.00 | 0.00 | 46 | 1019.7 |
| 20260830150831 | 27 | 214 | 0.0 | 17.7 | 0.00 | 0.00 | 0.00 | 47 | 1020.0 |
| 20260830150327 | 27 | 199 | 0.0 | 16.1 | 0.00 | 0.00 | 0.00 | 47 | 1020.0 |
| 20260830145827 | 27 | 135 | 0.0 | 14.5 | 0.00 | 0.00 | 0.00 | 48 | 1020.0 |
| 20260830145328 | 27 | 212 | 8.0 | 14.5 | 0.00 | 0.00 | 0.00 | 50 | 1020.0 |
| 20260830144823 | 26 | 191 | 8.0 | 14.5 | 0.00 | 0.00 | 0.00 | 50 | 1020.0 |
| 20260830144324 | 26 | 182 | 1.6 | 12.9 | 0.00 | 0.00 | 0.00 | 51 | 1020.0 |
| 20260830143811 | 26 | 192 | 1.6 | 12.9 | 0.00 | 0.00 | 0.00 | 52 | 1020.0 |
| 20260830143313 | 26 | 193 | 8.0 | 14.5 | 0.00 | 0.00 | 0.00 | 52 | 1020.4 |
| 20260830143034 | 25 | 181 | 4.8 | 14.5 | 0.00 | 0.00 | 0.00 | 53 | 1020.0 |
| 20260830142312 | 25 | 197 | 6.4 | 11.3 | 0.00 | 0.00 | 0.00 | 54 | 1020.0 |
| 20260830141806 | 25 | 208 | 0.0 | 12.9 | 0.00 | 0.00 | 0.00 | 55 | 1020.4 |
| 20260830141522 | 24 | 142 | 9.7 | 12.9 | 0.00 | 0.00 | 0.00 | 56 | 1020.4 |
| 20260830140746 | 24 | 120 | 0.0 | 12.9 | 0.00 | 0.00 | 0.00 | 56 | 1020.0 |
| 20260830140232 | 24 | 196 | 4.8 | 11.3 | 0.00 | 0.00 | 0.00 | 56 | 1020.4 |
| 20260830135732 | 24 | 159 | 4.8 | 11.3 | 0.00 | 0.00 | 0.00 | 57 | 1020.4 |
| 20260830135218 | 24 | 188 | 8.0 | 11.3 | 0.00 | 0.00 | 0.00 | 57 | 1020.4 |
| 20260830134712 | 23 | 190 | 0.0 | 11.3 | 0.00 | 0.00 | 0.00 | 57 | 1020.4 |
| 20260830134212 | 23 | 198 | 0.0 | 12.9 | 0.00 | 0.00 | 0.00 | 58 | 1020.0 |
| 20260830133934 | 23 | 176 | 4.8 | 14.5 | 0.00 | 0.00 | 0.00 | 58 | 1020.0 |
| 20260830133414 | 23 | 204 | 11.3 | 14.5 | 0.00 | 0.00 | 0.00 | 58 | 1020.0 |
| 20260830132640 | 23 | 197 | 3.2 | 11.3 | 0.00 | 0.00 | 0.00 | 58 | 1019.7 |
| 20260830132134 | 23 | 194 | 4.8 | 11.3 | 0.00 | 0.00 | 0.00 | 59 | 1020.0 |
| 20260830131627 | 22 | 211 | 6.4 | 11.3 | 0.00 | 0.00 | 0.00 | 60 | 1020.0 |
| 20260830131333 | 22 | 186 | 8.0 | 11.3 | 0.00 | 0.00 | 0.00 | 60 | 1020.0 |
| 20260830130613 | 22 | 152 | 0.0 | 6.4 | 0.00 | 0.00 | 0.00 | 60 | 1020.0 |
| 20260830130057 | 22 | 225 | 4.8 | 12.9 | 0.00 | 0.00 | 0.00 | 60 | 1019.7 |
| 20260830125542 | 22 | 187 | 3.2 | 12.9 | 0.00 | 0.00 | 0.00 | 60 | 1019.7 |
| 20260830125038 | 22 | 193 | 4.8 | 9.7 | 0.00 | 0.00 | 0.00 | 60 | 1019.7 |
| 20260830124534 | 22 | 132 | 3.2 | 9.7 | 0.00 | 0.00 | 0.00 | 60 | 1020.0 |
| 20260830124019 | 22 | 184 | 0.0 | 12.9 | 0.00 | 0.00 | 0.00 | 60 | 1019.7 |
| 20260830123509 | 22 | 194 | 0.0 | 12.9 | 0.00 | 0.00 | 0.00 | 59 | 1019.7 |
| 20260830122949 | 22 | 198 | 4.8 | 12.9 | 0.00 | 0.00 | 0.00 | 59 | 1019.7 |
| 20260830122650 | 22 | 201 | 6.4 | 12.9 | 0.00 | 0.00 | 0.00 | 58 | 1019.4 |
| 20260830122133 | 22 | 192 | 4.8 | 12.9 | 0.00 | 0.00 | 0.00 | 58 | 1019.7 |
| 20260830121406 | 22 | 199 | 6.4 | 12.9 | 0.00 | 0.00 | 0.00 | 58 | 1019.7 |
| 20260830120906 | 22 | 194 | 0.0 | 11.3 | 0.00 | 0.00 | 0.00 | 57 | 1019.7 |
| 20260830120403 | 22 | 206 | 0.0 | 12.9 | 0.00 | 0.00 | 0.00 | 57 | 1019.7 |
| 20260830120120 | 22 | 205 | 8.0 | 12.9 | 0.00 | 0.00 | 0.00 | 57 | 1019.4 |
| 20260830115338 | 22 | 201 | 4.8 | 12.9 | 0.00 | 0.00 | 0.00 | 56 | 1019.7 |
| 20260830115040 | 23 | 200 | 9.7 | 12.9 | 0.00 | 0.00 | 0.00 | 56 | 1019.4 |
| 20260830114324 | 23 | 211 | 11.3 | 14.5 | 0.00 | 0.00 | 0.00 | 56 | 1019.7 |
| 20260830113812 | 23 | 210 | 0.0 | 14.5 | 0.00 | 0.00 | 0.00 | 55 | 1019.7 |
| 20260830113305 | 23 | 200 | 6.4 | 12.9 | 0.00 | 0.00 | 0.00 | 55 | 1019.7 |
| 20260830112750 | 23 | 198 | 8.0 | 12.9 | 0.00 | 0.00 | 0.00 | 54 | 1019.7 |
| 20260830112235 | 23 | 198 | 0.0 | 11.3 | 0.00 | 0.00 | 0.00 | 54 | 1019.4 |
| 20260830111720 | 23 | 198 | 3.2 | 6.4 | 0.00 | 0.00 | 0.00 | 54 | 1019.7 |
| 20260830111207 | 23 | 196 | 0.0 | 6.4 | 0.00 | 0.00 | 0.00 | 54 | 1019.4 |
| 20260830110647 | 23 | 191 | 3.2 | 11.3 | 0.00 | 0.00 | 0.00 | 53 | 1019.7 |
| 20260830110133 | 23 | 190 | 1.6 | 11.3 | 0.00 | 0.00 | 0.00 | 53 | 1019.7 |
| 20260830105613 | 23 | 192 | 9.7 | 11.3 | 0.00 | 0.00 | 0.00 | 53 | 1019.7 |
| 20260830105113 | 23 | 185 | 8.0 | 12.9 | 0.00 | 0.00 | 0.00 | 53 | 1020.0 |
| 20260830104555 | 23 | 201 | 6.4 | 14.5 | 0.00 | 0.00 | 0.00 | 53 | 1020.0 |
| 20260830104039 | 23 | 193 | 0.0 | 14.5 | 0.00 | 0.00 | 0.00 | 53 | 1020.0 |
| 20260830103806 | 23 | 202 | 6.4 | 12.9 | 0.00 | 0.00 | 0.00 | 52 | 1019.4 |
| 20260830103030 | 23 | 212 | 0.0 | 12.9 | 0.00 | 0.00 | 0.00 | 52 | 1019.7 |
| 20260830102531 | 23 | 197 | 0.0 | 11.3 | 0.00 | 0.00 | 0.00 | 52 | 1019.4 |
| 20260830102031 | 23 | 182 | 0.0 | 11.3 | 0.00 | 0.00 | 0.00 | 51 | 1019.7 |
| 20260830101532 | 23 | 200 | 0.0 | 11.3 | 0.00 | 0.00 | 0.00 | 51 | 1019.4 |
| 20260830101027 | 23 | 198 | 1.6 | 9.7 | 0.00 | 0.00 | 0.00 | 51 | 1019.7 |
| 20260830100726 | 23 | 199 | 0.0 | 0.0 | 0.00 | 0.00 | 0.00 | 51 | 1019.7 |
| 20260830100008 | 23 | 189 | 0.0 | 1.6 | 0.00 | 0.00 | 0.00 | 50 | 1019.7 |
| 20260830095930 | 23 | 191 | 0.0 | 11.3 | 0.00 | 0.00 | 0.00 | 50 | 1019.7 |
| 20260830094929 | 23 | 205 | 6.4 | 11.3 | 0.00 | 0.00 | 0.00 | 50 | 1019.7 |
| 20260830094424 | 23 | 208 | 3.2 | 11.3 | 0.00 | 0.00 | 0.00 | 50 | 1019.4 |
| 20260830093918 | 23 | 182 | 0.0 | 11.3 | 0.00 | 0.00 | 0.00 | 49 | 1019.4 |
| 20260830093418 | 23 | 199 | 0.0 | 11.3 | 0.00 | 0.00 | 0.00 | 49 | 1019.4 |
| 20260830092919 | 23 | 199 | 8.0 | 11.3 | 0.00 | 0.00 | 0.00 | 49 | 1019.4 |
| 20260830092413 | 23 | 191 | 0.0 | 6.4 | 0.00 | 0.00 | 0.00 | 50 | 1019.4 |
| 20260830091855 | 23 | 180 | 0.0 | 0.0 | 0.00 | 0.00 | 0.00 | 50 | 1019.4 |
| 20260830091351 | 23 | 194 | 0.0 | 0.0 | 0.00 | 0.00 | 0.00 | 50 | 1019.4 |
| 20260830091054 | 22 | 189 | 0.0 | 0.0 | 0.00 | 0.00 | 0.00 | 50 | 1019.4 |
| 20260830090332 | 23 | 189 | 0.0 | 0.0 | 0.00 | 0.00 | 0.00 | 49 | 1019.4 |
| 20260830090051 | 23 | 187 | 0.0 | 0.0 | 0.00 | 0.00 | 0.00 | 49 | 1019.4 |
| 20260830085328 | 23 | 200 | 0.0 | 0.0 | 0.00 | 0.00 | 0.00 | 49 | 1019.4 |
| 20260830085035 | 23 | 184 | 0.0 | 0.0 | 0.00 | 0.00 | 0.00 | 48 | 1019.4 |
| 20260830084312 | 23 | 199 | 0.0 | 1.6 | 0.00 | 0.00 | 0.00 | 48 | 1019.4 |
| 20260830083809 | 23 | 196 | 0.0 | 1.6 | 0.00 | 0.00 | 0.00 | 47 | 1019.4 |
| 20260830083532 | 23 | 186 | 0.0 | 0.0 | 0.00 | 0.00 | 0.00 | 47 | 1019.4 |
| 20260830082751 | 23 | 190 | 0.0 | 0.0 | 0.00 | 0.00 | 0.00 | 47 | 1019.4 |
| 20260830082234 | 23 | 147 | 0.0 | 3.2 | 0.00 | 0.00 | 0.00 | 47 | 1019.4 |
| 20260830082215 | 23 | 181 | 0.0 | 3.2 | 0.00 | 0.00 | 0.00 | 46 | 1019.7 |
| 20260830081235 | 24 | 152 | 0.0 | 9.7 | 0.00 | 0.00 | 0.00 | 46 | 1019.4 |
| 20260830080948 | 24 | 174 | 0.0 | 9.7 | 0.00 | 0.00 | 0.00 | 46 | 1019.4 |
| 20260830080209 | 24 | 156 | 0.0 | 4.8 | 0.00 | 0.00 | 0.00 | 45 | 1019.7 |
| 20260830080014 | 24 | 137 | 0.0 | 1.6 | 0.00 | 0.00 | 0.00 | 46 | 1019.4 |
| 20260830075903 | 24 | 139 | 0.0 | 3.2 | 0.00 | 0.00 | 0.00 | 46 | 1019.7 |
| 20260830074922 | 23 | 144 | 0.0 | 3.2 | 0.00 | 0.00 | 0.00 | 46 | 1019.4 |
| 20260830074417 | 23 | 127 | 0.0 | 0.0 | 0.00 | 0.00 | 0.00 | 46 | 1019.4 |
| 20260830073653 | 23 | 135 | 0.0 | 0.0 | 0.00 | 0.00 | 0.00 | 46 | 1019.4 |
| 20260830073152 | 23 | 114 | 0.0 | 1.6 | 0.00 | 0.00 | 0.00 | 46 | 1019.4 |
| 20260830072639 | 24 | 160 | 0.0 | 1.6 | 0.00 | 0.00 | 0.00 | 46 | 1019.4 |
| 20260830072343 | 24 | 121 | 0.0 | 0.0 | 0.00 | 0.00 | 0.00 | 46 | 1019.7 |
| 20260830071624 | 24 | 148 | 0.0 | 0.0 | 0.00 | 0.00 | 0.00 | 46 | 1019.4 |
| 20260830071111 | 24 | 147 | 0.0 | 0.0 | 0.00 | 0.00 | 0.00 | 45 | 1019.7 |
| 20260830070609 | 24 | 137 | 0.0 | 0.0 | 0.00 | 0.00 | 0.00 | 46 | 1019.7 |
| 20260830070050 | 24 | 121 | 0.0 | 1.6 | 0.00 | 0.00 | 0.00 | 46 | 1019.7 |
| 20260830065545 | 24 | 129 | 0.0 | 1.6 | 0.00 | 0.00 | 0.00 | 46 | 1019.7 |
| 20260830065044 | 24 | 154 | 0.0 | 6.4 | 0.00 | 0.00 | 0.00 | 46 | 1019.4 |
| 20260830064530 | 24 | 160 | 0.0 | 6.4 | 0.00 | 0.00 | 0.00 | 45 | 1019.7 |
| 20260830064249 | 24 | 159 | 6.4 | 6.4 | 0.00 | 0.00 | 0.00 | 45 | 1019.7 |
| 20260830063526 | 25 | 139 | 0.0 | 11.3 | 0.00 | 0.00 | 0.00 | 45 | 1020.0 |
| 20260830063013 | 25 | 157 | 0.0 | 11.3 | 0.00 | 0.00 | 0.00 | 44 | 1020.0 |
| 20260830062512 | 25 | 150 | 0.0 | 11.3 | 0.00 | 0.00 | 0.00 | 44 | 1020.0 |
| 20260830062007 | 25 | 136 | 0.0 | 11.3 | 0.00 | 0.00 | 0.00 | 44 | 1020.0 |
| 20260830061452 | 25 | 153 | 6.4 | 11.3 | 0.00 | 0.00 | 0.00 | 43 | 1020.0 |
| 20260830060948 | 25 | 130 | 6.4 | 14.5 | 0.00 | 0.00 | 0.00 | 43 | 1019.7 |
| 20260830060654 | 25 | 141 | 0.0 | 14.5 | 0.00 | 0.00 | 0.00 | 43 | 1019.7 |
| 20260830060201 | 25 | 160 | 0.0 | 12.9 | 0.00 | 0.00 | 0.00 | 42 | 1019.7 |
| 20260830055413 | 25 | 136 | 4.8 | 12.9 | 0.00 | 0.00 | 0.00 | 42 | 1019.7 |
| 20260830054855 | 25 | 144 | 0.0 | 14.5 | 0.00 | 0.00 | 0.00 | 42 | 1019.7 |
| 20260830054355 | 25 | 139 | 8.0 | 14.5 | 0.00 | 0.00 | 0.00 | 42 | 1019.7 |
| 20260830054323 | 25 | 119 | 8.0 | 14.5 | 0.00 | 0.00 | 0.00 | 42 | 1019.7 |
| 20260830053336 | 26 | 142 | 0.0 | 14.5 | 0.00 | 0.00 | 0.00 | 41 | 1019.7 |
| 20260830053043 | 26 | 148 | 3.2 | 14.5 | 0.00 | 0.00 | 0.00 | 41 | 1020.0 |
| 20260830052317 | 26 | 152 | 3.2 | 16.1 | 0.00 | 0.00 | 0.00 | 40 | 1019.7 |
| 20260830051813 | 26 | 136 | 11.3 | 17.7 | 0.00 | 0.00 | 0.00 | 40 | 1019.4 |
| 20260830051312 | 26 | 163 | 8.0 | 17.7 | 0.00 | 0.00 | 0.00 | 40 | 1019.7 |
| 20260830050810 | 26 | 149 | 1.6 | 14.5 | 0.00 | 0.00 | 0.00 | 39 | 1019.7 |
| 20260830050305 | 26 | 121 | 6.4 | 14.5 | 0.00 | 0.00 | 0.00 | 39 | 1019.7 |
| 20260830045804 | 26 | 139 | 8.0 | 12.9 | 0.00 | 0.00 | 0.00 | 39 | 1019.7 |
| 20260830045251 | 26 | 156 | 3.2 | 12.9 | 0.00 | 0.00 | 0.00 | 39 | 1019.7 |
| 20260830044733 | 26 | 126 | 0.0 | 9.7 | 0.00 | 0.00 | 0.00 | 39 | 1019.7 |
| 20260830044212 | 26 | 169 | 0.0 | 11.3 | 0.00 | 0.00 | 0.00 | 38 | 1019.7 |
| 20260830043657 | 26 | 129 | 8.0 | 11.3 | 0.00 | 0.00 | 0.00 | 38 | 1019.4 |
| 20260830043142 | 27 | 121 | 0.0 | 9.7 | 0.00 | 0.00 | 0.00 | 38 | 1019.7 |
| 20260830042628 | 27 | 143 | 0.0 | 12.9 | 0.00 | 0.00 | 0.00 | 37 | 1019.7 |
| 20260830042113 | 27 | 157 | 0.0 | 11.3 | 0.00 | 0.00 | 0.00 | 37 | 1019.7 |
| 20260830042042 | 27 | 127 | 1.6 | 11.3 | 0.00 | 0.00 | 0.00 | 36 | 1020.0 |
| 20260830041319 | 27 | 135 | 1.6 | 11.3 | 0.00 | 0.00 | 0.00 | 36 | 1019.4 |
| 20260830040539 | 27 | 138 | 0.0 | 11.3 | 0.00 | 0.00 | 0.00 | 36 | 1019.4 |
| 20260830040035 | 27 | 146 | 0.0 | 12.9 | 0.00 | 0.00 | 0.00 | 35 | 1019.4 |
| 20260830035531 | 28 | 161 | 0.0 | 12.9 | 0.00 | 0.00 | 0.00 | 35 | 1019.7 |
| 20260830035030 | 28 | 140 | 4.8 | 11.3 | 0.00 | 0.00 | 0.00 | 35 | 1019.4 |
| 20260830034525 | 28 | 163 | 1.6 | 17.7 | 0.00 | 0.00 | 0.00 | 34 | 1019.4 |
| 20260830034020 | 28 | 159 | 3.2 | 17.7 | 0.00 | 0.00 | 0.00 | 34 | 1019.4 |
| 20260830033730 | 28 | 110 | 6.4 | 17.7 | 0.00 | 0.00 | 0.00 | 34 | 1019.4 |
| 20260830033010 | 28 | 132 | 11.3 | 17.7 | 0.00 | 0.00 | 0.00 | 34 | 1019.0 |
| 20260830032655 | 28 | 144 | 3.2 | 16.1 | 0.00 | 0.00 | 0.00 | 34 | 1019.4 |
| 20260830032541 | 28 | 117 | 11.3 | 16.1 | 0.00 | 0.00 | 0.00 | 33 | 1019.4 |
| 20260830031441 | 29 | 166 | 4.8 | 17.7 | 0.00 | 0.00 | 0.00 | 34 | 1019.4 |
| 20260830030935 | 29 | 145 | 9.7 | 17.7 | 0.00 | 0.00 | 0.00 | 34 | 1019.0 |
| 20260830030413 | 29 | 158 | 4.8 | 20.9 | 0.00 | 0.00 | 0.00 | 33 | 1019.0 |
| 20260830025912 | 29 | 129 | 9.7 | 20.9 | 0.00 | 0.00 | 0.00 | 34 | 1018.7 |
| 20260830025405 | 29 | 140 | 1.6 | 17.7 | 0.00 | 0.00 | 0.00 | 34 | 1018.7 |
| 20260830025130 | 29 | 114 | 6.4 | 25.7 | 0.00 | 0.00 | 0.00 | 33 | 1018.3 |
| 20260830024352 | 30 | 128 | 4.8 | 25.7 | 0.00 | 0.00 | 0.00 | 33 | 1018.3 |
| 20260830023840 | 30 | 170 | 0.0 | 24.1 | 0.00 | 0.00 | 0.00 | 33 | 1018.7 |
| 20260830023335 | 30 | 143 | 6.4 | 24.1 | 0.00 | 0.00 | 0.00 | 33 | 1018.3 |
| 20260830022828 | 30 | 131 | 9.7 | 22.5 | 0.00 | 0.00 | 0.00 | 32 | 1018.3 |
| 20260830022312 | 30 | 140 | 9.7 | 22.5 | 0.00 | 0.00 | 0.00 | 32 | 1018.0 |
| 20260830021811 | 30 | 124 | 14.5 | 24.1 | 0.00 | 0.00 | 0.00 | 32 | 1018.0 |
| 20260830021310 | 30 | 164 | 3.2 | 24.1 | 0.00 | 0.00 | 0.00 | 32 | 1018.0 |
| 20260830020757 | 30 | 150 | 1.6 | 20.9 | 0.00 | 0.00 | 0.00 | 31 | 1017.7 |
| 20260830020238 | 31 | 131 | 9.7 | 22.5 | 0.00 | 0.00 | 0.00 | 31 | 1018.0 |
| 20260830015735 | 31 | 128 | 11.3 | 22.5 | 0.00 | 0.00 | 0.00 | 31 | 1018.0 |
| 20260830015216 | 31 | 157 | 4.8 | 24.1 | 0.00 | 0.00 | 0.00 | 31 | 1017.7 |
| 20260830014712 | 31 | 143 | 8.0 | 24.1 | 0.00 | 0.00 | 0.00 | 30 | 1017.7 |
| 20260830014203 | 31 | 134 | 0.0 | 25.7 | 0.00 | 0.00 | 0.00 | 30 | 1017.7 |